STARLINK-3785, 52375

Orbit data source: Space-Track

STARLINK-3785, 52375 is a payload satellite owned by SpaceX/Seattle (US) in LEO that was launched on Fri, 29 Apr 2022 UTC via an FALCON 9 launch vehicle from the Air Force Eastern Test Range (AFETR). Payload-class satellites include a variety of spacecraft equipped with specific instruments for various scientific and technological missions. These include communications satellites like Starlink; space stations such as the ISS; scientific satellites like the Hubble; Earth observation satellites from companies like Planet Labs, Umbra, and HawkEye 360; GPS; miniature CubeSats for education and research; and military/defense satellites.

Loading next visibility...
Identifier
52375, 2022-045AW
Orbit
LEO
Country
Flag of USUS
Related business
Manufacturer
SpaceX/Seattle
Mission
Operational Commercial Communications
Bus & Motor
STARLINK, Unknown motor
Mass
297 kg wet, ~275 kg dry
Launch date (UTC)
2022-04-29 (4 years ago)
Launch vehicle
FALCON 9
Launch site
Air Force Eastern Test Range (AFETR)
Object type
Payload
Rocket body
Debris
Shape & HBR
Box + 1 Pan, 10.1 m
Radar Cross Section
11.087 m², Large (>1 m²)

Expand to show TLE details & history
Last TLE update: 12 hours ago

TLE from 12 hours ago
0 STARLINK-3785
1 52375U 22045AW  26119.69469961  .00000472  00000-0  47717-4 0  9997
2 52375  53.2180 320.1513 0001339  90.2114 269.9031 15.08840814223625
Epoch: 2026-04-29T16:40Z
TLE epoch observation values (Epoch: 2026-04-29T16:40:22.046Z)
Latitude
-0.00006°
Longitude
-147.59258°
Altitude
540.64 km
Speed
7.593 km/s
True Right ascension
21h 20m 36s
True Declination
0° 00' 00"
Sunlit
Object was in daylight at epoch
Visualization orbit readout
Latitude
Unknown
Longitude
Unknown
Altitude
Unknown
Speed
Unknown
Apparent Right ascension
Unknown
Apparent Declination
Unknown
Sunlit
N/A
Visualization observer readout
Local Sidereal Time
12:09:08
Azimuth
Unknown
Elevation
Unknown
Doppler factor
Unknown
Orbital elements
Apogee altitude
540.912 km
Perigee altitude
539.059 km
Semi-major axis
6,918.123 km
Eccentricity
0.00013
Inclination
53.218°
RAAN
320.1513°
Arg. of periapsis
90.2114°
True anomaly
269.88776°
Mean anomaly
269.9031°
Eccentric anomaly
269.89543°
Mean motion
3.77191 °/min
Orbital period
95.44 mins
BSTAR
0.000047717
Loading maneuver chart data...
Computing Atmospheric mass density...
Loading historical data...
Loading historical data...
Loading historical data...
Loading historical data...
Loading historical data...
Loading historical data...
Loading historical data...

Documentation

Showing up to 5 results
|